STARLINK-33872, 64189

Orbit data source: Space-Track

STARLINK-33872, 64189 is a payload satellite owned by SpaceX/Seattle (US) in LEO that was launched on Wed, 28 May 2025 UTC via an FALCON 9 launch vehicle from the Air Force Eastern Test Range (AFETR). Payload-class satellites include a variety of spacecraft equipped with specific instruments for various scientific and technological missions. These include communications satellites like Starlink; space stations such as the ISS; scientific satellites like the Hubble; Earth observation satellites from companies like Planet Labs, Umbra, and HawkEye 360; GPS; miniature CubeSats for education and research; and military/defense satellites.

Loading next visibility...
Identifier
64189, 2025-113V
Orbit
LEO
Country
Flag of USUS
Related business
Manufacturer
SpaceX/Seattle
Mission
Operational Commercial Communications
Bus & Motor
STARLINK V2MO, Unknown motor
Mass
575 kg wet, ~530 kg dry
Launch date (UTC)
2025-05-28 (1 year ago)
Launch vehicle
FALCON 9
Launch site
Air Force Eastern Test Range (AFETR)
Object type
Payload
Rocket body
Debris
Shape & HBR
Box + 2 Pan, 17.7 m
Radar Cross Section
36.964 m², Large (>1 m²)

Expand to show TLE details & history
Last TLE update: 16 hours ago

TLE from 16 hours ago
0 STARLINK-33872
1 64189U 25113V   26171.17562349  .00010079  00000-0  30892-3 0  9996
2 64189  53.1617 333.1432 0002231  82.5129 277.6127 15.34412829 60745
Epoch: 2026-06-20T04:12Z
TLE epoch observation values (Epoch: 2026-06-20T04:12:53.869Z)
Latitude
-0.00003°
Longitude
1.52471°
Altitude
463.365 km
Speed
7.636 km/s
True Right ascension
22h 12m 34s
True Declination
0° 00' 00"
Sunlit
Object was in full shadow at epoch
Visualization orbit readout
Latitude
Unknown
Longitude
Unknown
Altitude
Unknown
Speed
Unknown
Apparent Right ascension
Unknown
Apparent Declination
Unknown
Sunlit
N/A
Visualization observer readout
Local Sidereal Time
07:13:39
Azimuth
Unknown
Elevation
Unknown
Doppler factor
Unknown
Orbital elements
Apogee altitude
464.448 km
Perigee altitude
461.395 km
Semi-major axis
6,841.059 km
Eccentricity
0.00022
Inclination
53.1617°
RAAN
333.1432°
Arg. of periapsis
82.5129°
True anomaly
277.58736°
Mean anomaly
277.6127°
Eccentric anomaly
277.60003°
Mean motion
3.83582 °/min
Orbital period
93.85 mins
BSTAR
0.00030892
Loading maneuver chart data...
Computing Atmospheric mass density...
Loading historical data...
Loading historical data...
Loading historical data...
Loading historical data...
Loading historical data...
Loading historical data...
Loading historical data...

Documentation

Showing up to 5 results
|